Point Lay, AK

4:20 PM AKDT on July 27, 2017 (GMT -0800)
Point Lay

Weather History for PPIZ - January, 2014

Change the Weather History Date:

Tuesday, January 7, 2014

  Actual Average Record
Temperature  
Mean Temperature -11 °F -  
Max Temperature -4 °F -6 °F 26 °F (2017)
Min Temperature -18 °F -14 °F -40 °F (2008)
Degree Days  
Heating Degree Days 76    
Moisture  
Dew Point -15 °F    
Average Humidity 80    
Maximum Humidity 84    
Minimum Humidity 70    
Precipitation  
Precipitation 0.00 in - - ()
Sea Level Pressure  
Sea Level Pressure 29.99 in    
Wind  
Wind Speed 18 mph (NE)    
Max Wind Speed 21 mph    
Max Gust Speed -    
Averages and records for this station are not official NWS values.
T = Trace of Precipitation, MM = Missing Value Source: NWS Daily Summary

Daily Weather History Graph

Daily Weather History Graph

Search for Another Location

Airport or City:

Trip Planner

Search our weather history database for the weather conditions in past years. The results will help you decide how hot, cold, wet, or windy it might be!

Date:

Astronomy

Jan. 07, 2014 Rise Set
Actual Time 1:26 PM AKST 2:30 PM AKST
Civil Twilight 11:25 AM AKST 4:32 PM AKST
Nautical Twilight 9:48 AM AKST 6:09 PM AKST
Astronomical Twilight 8:32 AM AKST 7:25 PM AKST
Moon 12:12 PM AKST (1/7) 2:11 AM AKST (1/7)
Length of Visible Light 5h 07m
Length of Day
1h 04m
Waxing Crescent, 47% of the Moon is Illuminated
Jan 7
Waxing Crescent
Jan 7
First Quarter
Jan 15
Full
Jan 23
Last Quarter
Jan 30
New

Hourly Weather History & Observations

Time (AKST) Temp. Windchill Dew Point Humidity Pressure Visibility Wind Dir Wind Speed Gust Speed Precip Events Conditions
12:56 AM -6.0 °F -29.6 °F -9.9 °F 83% 29.95 in - NE 19.6 mph - 0.00 in Snow Light Snow
1:56 AM -4.9 °F -27.6 °F -8.9 °F 83% 29.96 in - NE 18.4 mph - 0.00 in Snow Light Snow
2:56 AM -4.0 °F -27.6 °F -9.4 °F 78% 29.94 in - NE 20.7 mph - N/A Snow Light Snow
3:56 AM -4.9 °F -28.8 °F -8.9 °F 83% 29.96 in - NE 20.7 mph - 0.00 in Snow Light Snow
4:56 AM -4.9 °F -28.2 °F -8.9 °F 83% 29.97 in - NE 19.6 mph - 0.00 in Snow Light Snow
5:56 AM -4.0 °F -25.2 °F -9.4 °F 78% 29.95 in - NE 16.1 mph - N/A Snow Light Snow
6:31 AM -4.0 °F -27.0 °F -9.4 °F 78% 29.96 in - ENE 19.6 mph - 0.00 in   Overcast
6:56 AM -4.0 °F -26.4 °F -8.9 °F 80% 29.97 in - NE 18.4 mph - 0.00 in Snow Light Snow
7:40 AM -5.8 °F -28.8 °F -9.4 °F 84% 29.96 in - NE 18.4 mph - 0.00 in Snow Light Snow
7:56 AM -4.9 °F -28.2 °F -8.9 °F 83% 29.98 in - NE 19.6 mph - 0.00 in Snow Light Snow
8:15 AM -5.8 °F -29.4 °F -9.4 °F 84% 29.97 in - ENE 19.6 mph - 0.00 in Snow Light Snow
8:44 AM -5.8 °F -28.2 °F -9.4 °F 84% 29.97 in - NE 17.3 mph - 0.00 in Snow Light Snow
8:56 AM -4.9 °F -27.0 °F -8.9 °F 83% 29.98 in - NE 17.3 mph - 0.00 in   Overcast
9:08 AM -5.8 °F -28.8 °F -9.4 °F 84% 29.97 in - NE 18.4 mph - 0.00 in   Overcast
9:34 AM -5.8 °F -28.8 °F -9.4 °F 84% 29.98 in - NE 18.4 mph - 0.00 in Snow Light Snow
9:56 AM -6.0 °F -28.4 °F -9.9 °F 83% 30.00 in - NE 17.3 mph - 0.00 in   Overcast
10:56 AM -6.9 °F -30.2 °F -11.9 °F 79% 30.01 in - NE 18.4 mph - 0.00 in Snow Light Snow
11:56 AM -7.6 °F -32.3 °F -11.2 °F 84% 30.00 in - NE 20.7 mph - N/A Snow Light Snow
12:24 PM -7.6 °F -31.7 °F -11.2 °F 84% 30.00 in - NE 19.6 mph - 0.00 in   Overcast
12:56 PM -6.9 °F -30.2 °F -11.9 °F 79% 30.02 in - NE 18.4 mph - 0.00 in Snow Light Snow
1:31 PM -7.6 °F -30.5 °F -13.0 °F 77% 30.01 in - NE 17.3 mph - 0.00 in Snow Light Snow
1:56 PM -9.9 °F -33.5 °F -13.9 °F 83% 30.03 in - NE 17.3 mph - 0.00 in   Overcast
2:56 PM -11.9 °F -36.8 °F -17.0 °F 78% 30.03 in - NE 18.4 mph - N/A   Mostly Cloudy
3:06 PM -11.2 °F -36.4 °F -16.6 °F 77% 30.01 in - NE 19.6 mph - N/A   Mostly Cloudy
3:21 PM -13.0 °F -36.0 °F -18.4 °F 77% 30.02 in - NE 15.0 mph - N/A   Mostly Cloudy
3:56 PM -13.9 °F -34.5 °F -18.9 °F 78% 30.03 in - NE 11.5 mph - N/A   Overcast
4:43 PM -16.6 °F -40.6 °F -20.2 °F 84% 30.01 in - NE 15.0 mph - N/A   Clear
4:56 PM -15.9 °F -38.9 °F -20.9 °F 78% 30.02 in - NE 13.8 mph - N/A   Mostly Cloudy
5:39 PM -16.6 °F -39.8 °F -22.0 °F 76% 30.01 in - NE 13.8 mph - N/A   Clear
5:56 PM -16.6 °F -41.4 °F -23.8 °F 70% 30.00 in - NE 16.1 mph - N/A   Clear
6:56 PM -17.9 °F -41.4 °F -22.9 °F 78% 30.02 in - NE 13.8 mph - N/A   Clear
7:43 PM -18.4 °F -42.1 °F -23.8 °F 76% 30.01 in - NE 13.8 mph - N/A   Mostly Cloudy
7:56 PM -17.9 °F -41.4 °F -22.9 °F 78% 30.03 in - NE 13.8 mph - N/A   Mostly Cloudy
8:37 PM -18.4 °F -41.2 °F -23.8 °F 76% 30.01 in - NE 12.7 mph - N/A   Clear
8:56 PM -18.4 °F -41.2 °F -23.8 °F 76% 30.01 in - NE 12.7 mph - N/A   Clear
9:28 PM -18.4 °F -41.2 °F -23.8 °F 76% 30.00 in - NE 12.7 mph - N/A   Mostly Cloudy
9:56 PM -17.9 °F -38.4 °F -24.0 °F 74% 30.01 in - NE 10.4 mph - N/A   Overcast
10:16 PM -18.4 °F -40.2 °F -23.8 °F 76% 30.00 in - NE 11.5 mph - N/A   Overcast
10:56 PM -15.9 °F -38.9 °F -20.9 °F 78% 30.01 in - NE 13.8 mph - N/A   Overcast
11:56 PM -17.0 °F -38.4 °F -22.0 °F 78% 30.01 in - NE 11.5 mph - N/A   Mostly Cloudy